Voltar ao catálogo

COSMOS 1348 DEB

LostHEO
NORAD 32778·DEBRIS·🇷🇺 Russia

Lançado Apr 7, 1982 de Plesetsk Cosmodrome

Loading…

Próximas Passagens (próximas 24 horas)

TLE

ObsoletoSource: Space-Track

Época: May 7, 2010, 04:45 UTC

1 32778U 82029M   10127.19836214  .00000161  00000-0  10000-3 0  9995
2 32778  71.1942  30.7043 5163910 156.1950 240.4625  1.96010894 22074

Acompanhe COSMOS 1348 DEB em tempo real com AllMySat

Download on the App Store